CFG6LO EDDF-LGKR

Flight info

Callsign CFG6LO
Flight time 1h 58m
Altitude 35000
Route CINDY8S/18 CINDY Z74 LAMPU DCT NOMBO Y161 MAH DCT VAVOR DCT RADIZ DCT NERRA DCT KOFER DCT RODON DCT LIMJA N732 PITAS
Aircraft A321/M-SDE3FGHIRWY/LB1

Departure

Time 2026-05-06 08:19
Airport Frankfurt Main Airport (EDDF)

Arrival

Time 2026-05-06 10:17
Airport Corfu Ioannis Kapodistrias International Airport (LGKR)
Time Latitude Longitude Altitude Speed Heading
2026-05-06 08:00 50.04886 8.57444 356 ft 0 kts 218°
2026-05-06 08:01 50.04883 8.57441 356 ft 0 kts 217°
2026-05-06 08:08 50.04897 8.57458 356 ft 4 kts 218°
2026-05-06 08:09 50.04919 8.57482 363 ft 4 kts 208°
2026-05-06 08:09 50.04940 8.57494 363 ft 4 kts 154°
2026-05-06 08:09 50.04943 8.57497 363 ft 4 kts 115°
2026-05-06 08:09 50.04932 8.57536 365 ft 4 kts 114°
2026-05-06 08:10 50.04921 8.57574 362 ft 4 kts 114°
2026-05-06 08:10 50.04910 8.57612 362 ft 4 kts 114°
2026-05-06 08:10 50.04907 8.57624 359 ft 0 kts 114°
2026-05-06 08:12 50.04903 8.57637 359 ft 5 kts 114°
2026-05-06 08:12 50.04875 8.57735 363 ft 15 kts 114°
2026-05-06 08:12 50.04804 8.57904 362 ft 22 kts 144°
2026-05-06 08:12 50.04683 8.57811 363 ft 26 kts 250°
2026-05-06 08:13 50.04619 8.57525 358 ft 23 kts 250°
2026-05-06 08:13 50.04565 8.57305 359 ft 21 kts 249°
2026-05-06 08:13 50.04515 8.57096 358 ft 20 kts 250°
2026-05-06 08:13 50.04469 8.56902 367 ft 18 kts 250°
2026-05-06 08:14 50.04427 8.56725 365 ft 18 kts 250°
2026-05-06 08:14 50.04374 8.56499 361 ft 24 kts 250°
2026-05-06 08:14 50.04315 8.56255 357 ft 24 kts 249°
2026-05-06 08:14 50.04257 8.56017 361 ft 23 kts 249°
2026-05-06 08:15 50.04202 8.55776 353 ft 25 kts 250°
2026-05-06 08:15 50.04139 8.55506 359 ft 28 kts 249°
2026-05-06 08:15 50.04068 8.55209 358 ft 29 kts 249°
2026-05-06 08:15 50.03995 8.54922 360 ft 28 kts 248°
2026-05-06 08:16 50.03927 8.54635 352 ft 28 kts 250°
2026-05-06 08:16 50.03853 8.54353 350 ft 28 kts 242°
2026-05-06 08:16 50.03765 8.54087 352 ft 27 kts 249°
2026-05-06 08:16 50.03700 8.53814 346 ft 27 kts 249°
2026-05-06 08:17 50.03634 8.53546 339 ft 26 kts 249°
2026-05-06 08:17 50.03571 8.53283 335 ft 26 kts 250°
2026-05-06 08:17 50.03509 8.53030 335 ft 25 kts 249°
2026-05-06 08:17 50.03448 8.52784 332 ft 20 kts 251°
2026-05-06 08:18 50.03392 8.52609 333 ft 13 kts 214°
2026-05-06 08:18 50.03348 8.52594 335 ft 4 kts 185°
2026-05-06 08:18 50.03309 8.52594 334 ft 11 kts 179°
2026-05-06 08:18 50.03019 8.52596 331 ft 74 kts 179°
2026-05-06 08:19 50.02311 8.52603 332 ft 127 kts 180°
2026-05-06 08:19 50.01286 8.52615 336 ft 166 kts 180°
2026-05-06 08:19 50.00132 8.52609 911 ft 160 kts 180°
2026-05-06 08:19 49.99030 8.52660 1543 ft 159 kts 182°
2026-05-06 08:20 49.97879 8.52812 1903 ft 177 kts 171°
2026-05-06 08:20 49.96675 8.53633 2089 ft 204 kts 149°
2026-05-06 08:20 49.95656 8.55360 2249 ft 232 kts 123°
2026-05-06 08:20 49.94866 8.57608 2807 ft 238 kts 122°
2026-05-06 08:21 49.94030 8.59950 3190 ft 259 kts 121°
2026-05-06 08:21 49.93131 8.62456 3728 ft 270 kts 121°
2026-05-06 08:21 49.92210 8.65029 4468 ft 274 kts 122°
2026-05-06 08:21 49.91280 8.67623 5208 ft 277 kts 122°
2026-05-06 08:22 49.90338 8.70249 5955 ft 281 kts 122°
2026-05-06 08:22 49.89376 8.72911 6622 ft 284 kts 122°
2026-05-06 08:22 49.88400 8.75596 7322 ft 287 kts 123°
2026-05-06 08:22 49.87421 8.78298 8049 ft 289 kts 123°
2026-05-06 08:23 49.86433 8.81022 8759 ft 291 kts 123°
2026-05-06 08:23 49.85439 8.83764 9459 ft 294 kts 122°
2026-05-06 08:23 49.84435 8.86539 10101 ft 296 kts 122°
2026-05-06 08:23 49.83401 8.89394 10375 ft 314 kts 122°
2026-05-06 08:24 49.82306 8.92399 10508 ft 335 kts 122°
2026-05-06 08:24 49.81128 8.95631 10652 ft 354 kts 122°
2026-05-06 08:24 49.79901 8.99002 11070 ft 363 kts 122°
2026-05-06 08:24 49.78641 9.02465 11666 ft 367 kts 122°
2026-05-06 08:25 49.77386 9.05913 12299 ft 370 kts 122°
2026-05-06 08:25 49.76252 9.09514 12903 ft 376 kts 113°
2026-05-06 08:25 49.75523 9.13430 13515 ft 382 kts 107°
2026-05-06 08:25 49.74680 9.17313 14048 ft 381 kts 117°
2026-05-06 08:26 49.73402 9.20831 14604 ft 380 kts 128°
2026-05-06 08:26 49.71713 9.24021 15170 ft 380 kts 134°
2026-05-06 08:26 49.69958 9.27096 15719 ft 382 kts 134°
2026-05-06 08:26 49.68220 9.30154 16249 ft 385 kts 134°
2026-05-06 08:27 49.66450 9.33269 16764 ft 387 kts 134°
2026-05-06 08:27 49.64671 9.36409 17295 ft 390 kts 134°
2026-05-06 08:27 49.62868 9.39545 17784 ft 391 kts 137°
2026-05-06 08:27 49.60811 9.42282 18234 ft 391 kts 147°
2026-05-06 08:28 49.58501 9.44497 18655 ft 392 kts 152°
2026-05-06 08:28 49.56148 9.46645 19052 ft 395 kts 152°
2026-05-06 08:28 49.53777 9.48812 19461 ft 398 kts 152°
2026-05-06 08:28 49.51391 9.50993 19879 ft 400 kts 152°
2026-05-06 08:29 49.48987 9.53188 20277 ft 403 kts 152°
2026-05-06 08:29 49.46567 9.55395 20711 ft 405 kts 153°
2026-05-06 08:29 49.44131 9.57614 21133 ft 408 kts 153°
2026-05-06 08:29 49.41683 9.59842 21528 ft 411 kts 153°
2026-05-06 08:30 49.39213 9.62087 21931 ft 413 kts 153°
2026-05-06 08:30 49.36726 9.64341 22343 ft 416 kts 153°
2026-05-06 08:30 49.34280 9.66743 22733 ft 421 kts 146°
2026-05-06 08:30 49.32071 9.69744 23145 ft 427 kts 138°
2026-05-06 08:31 49.29968 9.72978 23528 ft 429 kts 139°
2026-05-06 08:31 49.27853 9.76218 23872 ft 431 kts 139°
2026-05-06 08:31 49.25725 9.79466 24228 ft 432 kts 139°
2026-05-06 08:31 49.23591 9.82714 24574 ft 433 kts 139°
2026-05-06 08:32 49.21451 9.85965 24931 ft 434 kts 139°
2026-05-06 08:32 49.19306 9.89221 25278 ft 436 kts 140°
2026-05-06 08:32 49.17150 9.92491 25611 ft 437 kts 140°
2026-05-06 08:32 49.14990 9.95768 25947 ft 438 kts 140°
2026-05-06 08:33 49.12822 9.99051 26302 ft 440 kts 140°
2026-05-06 08:33 49.10643 10.02342 26664 ft 441 kts 140°
2026-05-06 08:33 49.08454 10.05640 27043 ft 443 kts 141°
2026-05-06 08:33 49.06259 10.08944 27497 ft 443 kts 141°
2026-05-06 08:34 49.04042 10.12211 27875 ft 443 kts 142°
2026-05-06 08:34 48.99549 10.18563 28457 ft 445 kts 144°
2026-05-06 08:34 48.97255 10.21742 28712 ft 447 kts 144°
2026-05-06 08:35 48.94958 10.24932 29055 ft 447 kts 144°
2026-05-06 08:35 48.92679 10.28122 29515 ft 444 kts 144°
2026-05-06 08:35 48.90425 10.31301 29934 ft 442 kts 144°
2026-05-06 08:35 48.88170 10.34491 30254 ft 442 kts 144°
2026-05-06 08:36 48.85924 10.37664 30537 ft 442 kts 144°
2026-05-06 08:36 48.83669 10.40840 30828 ft 442 kts 144°
2026-05-06 08:36 48.81438 10.44068 31058 ft 444 kts 142°
2026-05-06 08:36 48.79268 10.47425 31301 ft 447 kts 141°
2026-05-06 08:37 48.77139 10.50867 31549 ft 448 kts 140°
2026-05-06 08:37 48.75024 10.54357 31736 ft 450 kts 140°
2026-05-06 08:37 48.72905 10.57855 31966 ft 451 kts 140°
2026-05-06 08:37 48.70767 10.61348 32199 ft 452 kts 140°
2026-05-06 08:38 48.68613 10.64815 32470 ft 451 kts 141°
2026-05-06 08:38 48.66451 10.68255 32742 ft 451 kts 141°
2026-05-06 08:38 48.64280 10.71691 33005 ft 451 kts 141°
2026-05-06 08:38 48.62109 10.75116 33267 ft 451 kts 141°
2026-05-06 08:39 48.59937 10.78537 33522 ft 452 kts 141°
2026-05-06 08:39 48.57766 10.81974 33776 ft 452 kts 140°
2026-05-06 08:39 48.55607 10.85416 34011 ft 451 kts 140°
2026-05-06 08:39 48.53454 10.88861 34233 ft 450 kts 140°
2026-05-06 08:40 48.51312 10.92292 34472 ft 449 kts 140°
2026-05-06 08:40 48.49168 10.95726 34706 ft 449 kts 140°
2026-05-06 08:40 48.47020 10.99141 34821 ft 450 kts 140°
2026-05-06 08:41 48.43379 11.04821 34839 ft 457 kts 141°
2026-05-06 08:41 48.38921 11.11728 34834 ft 462 kts 141°
2026-05-06 08:42 48.34446 11.18668 34833 ft 462 kts 141°
2026-05-06 08:42 48.29970 11.25586 34826 ft 461 kts 141°
2026-05-06 08:43 48.25729 11.32870 34837 ft 471 kts 129°
2026-05-06 08:43 48.22412 11.41412 34834 ft 474 kts 127°
2026-05-06 08:44 48.19105 11.49974 34834 ft 474 kts 127°
2026-05-06 08:44 48.15785 11.58515 34837 ft 474 kts 127°
2026-05-06 08:45 48.12456 11.67061 34827 ft 475 kts 127°
2026-05-06 08:45 48.09150 11.75526 34827 ft 475 kts 127°
2026-05-06 08:46 48.05811 11.84054 34828 ft 475 kts 127°
2026-05-06 08:46 48.02466 11.92562 34818 ft 475 kts 127°
2026-05-06 08:47 47.99109 12.01058 34794 ft 475 kts 127°
2026-05-06 08:47 47.95750 12.09556 34811 ft 475 kts 127°
2026-05-06 08:48 47.91865 12.17312 34818 ft 459 kts 143°
2026-05-06 08:48 47.87049 12.23437 34824 ft 455 kts 147°
2026-05-06 08:49 47.82208 12.29493 34826 ft 455 kts 147°
2026-05-06 08:49 47.77362 12.35554 34828 ft 455 kts 147°
2026-05-06 08:50 47.72513 12.41593 34827 ft 455 kts 147°
2026-05-06 08:50 47.67662 12.47620 34832 ft 454 kts 147°
2026-05-06 08:51 47.62812 12.53626 34829 ft 454 kts 147°
2026-05-06 08:51 47.57911 12.59523 34830 ft 453 kts 148°
2026-05-06 08:52 47.52970 12.65289 34805 ft 453 kts 149°
2026-05-06 08:52 47.48017 12.71052 34795 ft 454 kts 149°
2026-05-06 08:53 47.43055 12.76853 34815 ft 455 kts 149°
2026-05-06 08:53 47.38101 12.82658 34830 ft 455 kts 149°
2026-05-06 08:54 47.34032 12.87407 34836 ft 455 kts 149°
2026-05-06 08:54 47.30986 12.90967 34859 ft 455 kts 149°
2026-05-06 08:55 47.26017 12.96743 34799 ft 454 kts 149°
2026-05-06 08:55 47.21059 13.02470 34845 ft 459 kts 149°
2026-05-06 08:56 47.16026 13.08282 34864 ft 460 kts 149°
2026-05-06 08:56 47.10995 13.14096 34887 ft 460 kts 149°
2026-05-06 08:57 47.05950 13.19893 34908 ft 461 kts 149°
2026-05-06 08:57 47.00899 13.25694 34892 ft 461 kts 149°
2026-05-06 08:58 46.95829 13.31496 34891 ft 463 kts 149°
2026-05-06 08:58 46.90757 13.37286 34910 ft 464 kts 149°
2026-05-06 08:59 46.85667 13.43073 34906 ft 463 kts 149°
2026-05-06 08:59 46.80599 13.48823 34925 ft 464 kts 150°
2026-05-06 09:00 46.75500 13.54608 34890 ft 464 kts 150°
2026-05-06 09:00 46.70393 13.60393 34906 ft 465 kts 150°
2026-05-06 09:01 46.65267 13.66166 34915 ft 466 kts 150°
2026-05-06 09:01 46.60129 13.71942 34926 ft 466 kts 150°
2026-05-06 09:02 46.54990 13.77722 34941 ft 467 kts 150°
2026-05-06 09:02 46.49841 13.83479 34919 ft 467 kts 149°
2026-05-06 09:03 46.44682 13.89225 34923 ft 468 kts 149°
2026-05-06 09:03 46.39512 13.94990 34932 ft 469 kts 149°
2026-05-06 09:04 46.34337 14.00747 34944 ft 469 kts 149°
2026-05-06 09:04 46.29155 14.06498 34950 ft 470 kts 149°
2026-05-06 09:05 46.23964 14.12237 34933 ft 471 kts 149°
2026-05-06 09:05 46.18754 14.17990 34946 ft 471 kts 149°
2026-05-06 09:06 46.13539 14.23723 34955 ft 471 kts 149°
2026-05-06 09:06 46.08313 14.29451 34962 ft 472 kts 149°
2026-05-06 09:07 46.03081 14.35175 34969 ft 473 kts 150°
2026-05-06 09:07 45.97840 14.40908 34948 ft 474 kts 149°
2026-05-06 09:08 45.92586 14.46640 34957 ft 475 kts 149°
2026-05-06 09:08 45.87315 14.52371 34963 ft 475 kts 149°
2026-05-06 09:09 45.82038 14.58096 34968 ft 475 kts 149°
2026-05-06 09:09 45.76759 14.63798 34979 ft 476 kts 149°
2026-05-06 09:10 45.71469 14.69493 34969 ft 476 kts 149°
2026-05-06 09:10 45.66181 14.75189 34974 ft 476 kts 149°
2026-05-06 09:11 45.60880 14.80886 34977 ft 477 kts 149°
2026-05-06 09:11 45.55573 14.86583 34964 ft 477 kts 149°
2026-05-06 09:12 45.50291 14.92232 34975 ft 478 kts 149°
2026-05-06 09:12 45.44961 14.97909 34957 ft 478 kts 149°
2026-05-06 09:13 45.39627 15.03571 34971 ft 479 kts 149°
2026-05-06 09:13 45.34283 15.09244 34962 ft 479 kts 149°
2026-05-06 09:14 45.28937 15.14912 34965 ft 479 kts 149°
2026-05-06 09:14 45.23589 15.20565 34971 ft 479 kts 149°
2026-05-06 09:15 45.18230 15.26196 34973 ft 479 kts 149°
2026-05-06 09:15 45.12874 15.31819 34959 ft 479 kts 149°
2026-05-06 09:16 45.07527 15.37435 34976 ft 478 kts 149°
2026-05-06 09:16 45.02219 15.42992 34988 ft 478 kts 149°
2026-05-06 09:17 44.96875 15.48561 34973 ft 477 kts 149°
2026-05-06 09:17 44.91533 15.54111 34985 ft 476 kts 149°
2026-05-06 09:18 44.86201 15.59656 34987 ft 476 kts 149°
2026-05-06 09:18 44.80871 15.65186 34998 ft 475 kts 149°
2026-05-06 09:19 44.75546 15.70680 35004 ft 474 kts 149°
2026-05-06 09:19 44.70223 15.76166 34977 ft 474 kts 149°
2026-05-06 09:20 44.64900 15.81638 34992 ft 474 kts 149°
2026-05-06 09:20 44.59574 15.87101 35003 ft 474 kts 149°
2026-05-06 09:21 44.54255 15.92552 35011 ft 473 kts 150°
2026-05-06 09:21 44.48936 15.97987 34981 ft 473 kts 149°
2026-05-06 09:22 44.43621 16.03405 34978 ft 473 kts 149°
2026-05-06 09:22 44.38298 16.08819 34994 ft 473 kts 149°
2026-05-06 09:23 44.32973 16.14223 35007 ft 473 kts 149°
2026-05-06 09:23 44.27676 16.19580 35011 ft 473 kts 149°
2026-05-06 09:24 44.22338 16.24969 35003 ft 474 kts 149°
2026-05-06 09:24 44.17005 16.30355 35015 ft 473 kts 149°
2026-05-06 09:25 44.11666 16.35728 35025 ft 473 kts 149°
2026-05-06 09:25 44.06324 16.41075 35031 ft 473 kts 149°
2026-05-06 09:26 44.01855 16.45546 35038 ft 473 kts 149°
2026-05-06 09:26 43.96547 16.50847 35020 ft 473 kts 148°
2026-05-06 09:27 43.91172 16.56212 35039 ft 473 kts 149°
2026-05-06 09:27 43.85855 16.61493 35042 ft 473 kts 149°
2026-05-06 09:28 43.80503 16.66797 35052 ft 473 kts 149°
2026-05-06 09:28 43.75148 16.72100 35027 ft 473 kts 148°
2026-05-06 09:29 43.69791 16.77399 35041 ft 474 kts 148°
2026-05-06 09:29 43.64422 16.82692 35048 ft 474 kts 148°
2026-05-06 09:30 43.59057 16.87970 35052 ft 474 kts 148°
2026-05-06 09:30 43.53687 16.93246 35067 ft 474 kts 148°
2026-05-06 09:31 43.48310 16.98500 35072 ft 474 kts 148°
2026-05-06 09:31 43.42931 17.03740 35072 ft 474 kts 148°
2026-05-06 09:32 43.37552 17.08978 35068 ft 474 kts 148°
2026-05-06 09:32 43.32165 17.14217 35072 ft 474 kts 148°
2026-05-06 09:33 43.26780 17.19446 35077 ft 474 kts 148°
2026-05-06 09:33 43.21433 17.24625 35082 ft 474 kts 148°
2026-05-06 09:34 43.16040 17.29832 35085 ft 474 kts 148°
2026-05-06 09:34 43.10637 17.35037 35094 ft 475 kts 148°
2026-05-06 09:35 43.05238 17.40231 35087 ft 474 kts 148°
2026-05-06 09:35 42.99841 17.45416 35086 ft 474 kts 148°
2026-05-06 09:36 42.94435 17.50595 35091 ft 475 kts 148°
2026-05-06 09:36 42.89126 17.55966 35092 ft 478 kts 143°
2026-05-06 09:37 42.84077 17.61860 35088 ft 478 kts 143°
2026-05-06 09:37 42.79027 17.67745 35097 ft 477 kts 143°
2026-05-06 09:38 42.73980 17.73619 35096 ft 477 kts 143°
2026-05-06 09:38 42.68929 17.79482 35098 ft 478 kts 143°
2026-05-06 09:39 42.63870 17.85341 35102 ft 478 kts 143°
2026-05-06 09:39 42.58806 17.91189 35114 ft 478 kts 143°
2026-05-06 09:40 42.53736 17.97026 35119 ft 478 kts 143°
2026-05-06 09:40 42.46135 18.05759 35123 ft 477 kts 143°
2026-05-06 09:41 42.41063 18.11562 35124 ft 477 kts 143°
2026-05-06 09:41 42.36024 18.17330 35121 ft 477 kts 143°
2026-05-06 09:42 42.30892 18.23074 35119 ft 476 kts 145°
2026-05-06 09:42 42.25672 18.28479 35120 ft 476 kts 146°
2026-05-06 09:43 42.20342 18.33868 35119 ft 475 kts 146°
2026-05-06 09:43 42.15077 18.39272 35117 ft 476 kts 146°
2026-05-06 09:44 42.09835 18.44712 35109 ft 476 kts 145°
2026-05-06 09:44 42.04579 18.50163 35102 ft 477 kts 145°
2026-05-06 09:45 41.99338 18.55569 35101 ft 478 kts 146°
2026-05-06 09:45 41.94015 18.61029 35114 ft 478 kts 146°
2026-05-06 09:46 41.88754 18.66409 35103 ft 479 kts 146°
2026-05-06 09:46 41.83458 18.71830 35120 ft 478 kts 146°
2026-05-06 09:47 41.78168 18.77235 35124 ft 478 kts 146°
2026-05-06 09:47 41.72864 18.82639 35114 ft 479 kts 146°
2026-05-06 09:48 41.67545 18.88044 35114 ft 480 kts 146°
2026-05-06 09:48 41.62220 18.93449 35111 ft 480 kts 146°
2026-05-06 09:49 41.56893 18.98846 35127 ft 480 kts 146°
2026-05-06 09:49 41.51565 19.04225 35133 ft 480 kts 146°
2026-05-06 09:50 41.46140 19.09407 35132 ft 477 kts 154°
2026-05-06 09:50 41.40651 19.12531 35135 ft 472 kts 163°
2026-05-06 09:51 41.35748 19.14920 34774 ft 475 kts 163°
2026-05-06 09:51 41.32660 19.16431 34290 ft 471 kts 163°
2026-05-06 09:51 41.29588 19.17937 33768 ft 468 kts 163°
2026-05-06 09:52 41.26547 19.19422 33231 ft 465 kts 163°
2026-05-06 09:52 41.23514 19.20898 32705 ft 462 kts 163°
2026-05-06 09:52 41.20498 19.22364 32179 ft 461 kts 163°
2026-05-06 09:52 41.17482 19.23833 31557 ft 462 kts 163°
2026-05-06 09:53 41.14464 19.25301 30933 ft 463 kts 163°
2026-05-06 09:53 41.11433 19.26770 30324 ft 464 kts 163°
2026-05-06 09:53 41.08404 19.28232 29647 ft 464 kts 163°
2026-05-06 09:53 41.05377 19.29696 28956 ft 463 kts 163°
2026-05-06 09:54 41.02353 19.31159 28285 ft 462 kts 163°
2026-05-06 09:54 40.99329 19.32562 27627 ft 459 kts 168°
2026-05-06 09:54 40.96227 19.33451 26985 ft 455 kts 172°
2026-05-06 09:54 40.93131 19.34266 26348 ft 453 kts 172°
2026-05-06 09:55 40.90043 19.35080 25729 ft 452 kts 172°
2026-05-06 09:55 40.86958 19.35893 25125 ft 450 kts 172°
2026-05-06 09:55 40.83895 19.36694 24541 ft 449 kts 172°
2026-05-06 09:55 40.80835 19.37491 24003 ft 446 kts 172°
2026-05-06 09:56 40.77803 19.38274 23440 ft 443 kts 172°
2026-05-06 09:56 40.74786 19.39050 22822 ft 440 kts 172°
2026-05-06 09:56 40.71788 19.39824 22211 ft 438 kts 172°
2026-05-06 09:56 40.68811 19.40593 21617 ft 435 kts 172°
2026-05-06 09:57 40.65854 19.41355 21040 ft 432 kts 172°
2026-05-06 09:57 40.62917 19.42110 20475 ft 428 kts 172°
2026-05-06 09:57 40.60004 19.42858 19915 ft 425 kts 172°
2026-05-06 09:57 40.57105 19.43605 19366 ft 422 kts 172°
2026-05-06 09:58 40.54239 19.44345 18827 ft 419 kts 172°
2026-05-06 09:58 40.51384 19.45084 18261 ft 416 kts 171°
2026-05-06 09:58 40.48555 19.45814 17660 ft 413 kts 171°
2026-05-06 09:58 40.45745 19.46536 17061 ft 410 kts 171°
2026-05-06 09:59 40.42960 19.47252 16484 ft 407 kts 171°
2026-05-06 09:59 40.40193 19.47966 15911 ft 404 kts 171°
2026-05-06 09:59 40.37442 19.48676 15347 ft 402 kts 171°
2026-05-06 09:59 40.34706 19.49379 14786 ft 400 kts 171°
2026-05-06 10:00 40.31989 19.50071 14255 ft 397 kts 171°
2026-05-06 10:00 40.29287 19.50758 13674 ft 394 kts 171°
2026-05-06 10:00 40.26606 19.51442 13071 ft 390 kts 171°
2026-05-06 10:00 40.23962 19.52118 12605 ft 382 kts 171°
2026-05-06 10:01 40.21397 19.52774 12339 ft 370 kts 171°
2026-05-06 10:01 40.18904 19.53412 12091 ft 360 kts 171°
2026-05-06 10:01 40.16474 19.54032 11838 ft 353 kts 171°
2026-05-06 10:01 40.14071 19.54643 11593 ft 351 kts 171°
2026-05-06 10:02 40.11682 19.55250 11341 ft 349 kts 171°
2026-05-06 10:02 40.09301 19.55852 11096 ft 347 kts 171°
2026-05-06 10:02 40.06934 19.56448 10860 ft 346 kts 171°
2026-05-06 10:02 40.04602 19.57035 10622 ft 345 kts 171°
2026-05-06 10:03 40.02251 19.57629 10382 ft 344 kts 171°
2026-05-06 10:03 39.99908 19.58220 10144 ft 342 kts 171°
2026-05-06 10:03 39.97583 19.58805 9890 ft 337 kts 171°
2026-05-06 10:03 39.95311 19.59379 9639 ft 328 kts 171°
2026-05-06 10:04 39.93100 19.59942 9381 ft 320 kts 171°
2026-05-06 10:04 39.90944 19.60491 9121 ft 312 kts 171°
2026-05-06 10:04 39.88833 19.61026 8858 ft 305 kts 171°
2026-05-06 10:04 39.86767 19.61547 8603 ft 299 kts 171°
2026-05-06 10:05 39.84740 19.62058 8275 ft 296 kts 171°
2026-05-06 10:05 39.82731 19.62564 7941 ft 293 kts 171°
2026-05-06 10:05 39.80732 19.63067 7574 ft 291 kts 171°
2026-05-06 10:05 39.78751 19.63564 7179 ft 287 kts 171°
2026-05-06 10:06 39.76824 19.64051 6787 ft 277 kts 171°
2026-05-06 10:06 39.74962 19.64522 6406 ft 268 kts 171°
2026-05-06 10:06 39.73161 19.64975 5995 ft 259 kts 171°
2026-05-06 10:06 39.71416 19.65414 5597 ft 252 kts 171°
2026-05-06 10:07 39.69719 19.65840 5197 ft 245 kts 171°
2026-05-06 10:07 39.68054 19.66258 4798 ft 242 kts 171°
2026-05-06 10:07 39.66402 19.66671 4393 ft 242 kts 171°
2026-05-06 10:07 39.64750 19.67084 4051 ft 239 kts 171°
2026-05-06 10:08 39.63183 19.67480 4012 ft 229 kts 171°
2026-05-06 10:08 39.61597 19.67880 4013 ft 229 kts 171°
2026-05-06 10:08 39.60049 19.68268 4015 ft 229 kts 171°
2026-05-06 10:08 39.58483 19.68659 4012 ft 229 kts 171°
2026-05-06 10:09 39.57427 19.68922 4009 ft 229 kts 171°
2026-05-06 10:09 39.55349 19.69437 4008 ft 229 kts 171°
2026-05-06 10:09 39.53782 19.69826 4011 ft 229 kts 171°
2026-05-06 10:09 39.52214 19.70218 4012 ft 230 kts 171°
2026-05-06 10:10 39.51153 19.70485 4013 ft 229 kts 171°
2026-05-06 10:10 39.49589 19.70879 4012 ft 229 kts 171°
2026-05-06 10:10 39.48042 19.71266 4013 ft 229 kts 171°
2026-05-06 10:10 39.46475 19.71654 4016 ft 229 kts 171°
2026-05-06 10:11 39.44911 19.72040 4015 ft 229 kts 171°
2026-05-06 10:11 39.43386 19.72638 3939 ft 232 kts 152°
2026-05-06 10:11 39.42211 19.74058 3828 ft 235 kts 123°
2026-05-06 10:11 39.41718 19.76023 3721 ft 229 kts 94°
2026-05-06 10:12 39.41970 19.78008 3599 ft 222 kts 74°
2026-05-06 10:12 39.42420 19.79904 3470 ft 221 kts 74°
2026-05-06 10:12 39.42865 19.81796 3350 ft 219 kts 74°
2026-05-06 10:12 39.43303 19.83675 3215 ft 217 kts 74°
2026-05-06 10:13 39.43736 19.85549 3094 ft 216 kts 75°
2026-05-06 10:13 39.44167 19.87415 2966 ft 216 kts 75°
2026-05-06 10:13 39.44598 19.89278 2838 ft 217 kts 75°
2026-05-06 10:13 39.45031 19.91147 2901 ft 218 kts 75°
2026-05-06 10:14 39.45476 19.93030 2911 ft 219 kts 70°
2026-05-06 10:14 39.46381 19.94564 2908 ft 215 kts 30°
2026-05-06 10:14 39.47762 19.94923 2709 ft 202 kts 353°
2026-05-06 10:14 39.49105 19.94504 2356 ft 194 kts 337°
2026-05-06 10:15 39.50328 19.93909 2093 ft 179 kts 340°
2026-05-06 10:15 39.51497 19.93478 1913 ft 168 kts 345°
2026-05-06 10:15 39.52611 19.93154 1628 ft 162 kts 346°
2026-05-06 10:15 39.53690 19.92852 1311 ft 158 kts 349°
2026-05-06 10:16 39.54768 19.92598 1034 ft 157 kts 349°
2026-05-06 10:16 39.55834 19.92327 820 ft 157 kts 348°
2026-05-06 10:16 39.56899 19.92065 568 ft 155 kts 349°
2026-05-06 10:16 39.57959 19.91788 302 ft 155 kts 351°
2026-05-06 10:17 39.59007 19.91523 87 ft 152 kts 350°
2026-05-06 10:17 39.60001 19.91264 13 ft 134 kts 349°
2026-05-06 10:17 39.60645 19.91099 8 ft 51 kts 349°
2026-05-06 10:17 39.60920 19.91029 9 ft 37 kts 349°
2026-05-06 10:18 39.61039 19.91046 9 ft 12 kts 54°
2026-05-06 10:18 39.61029 19.91127 9 ft 9 kts 150°
2026-05-06 10:18 39.60973 19.91145 8 ft 8 kts 170°
2026-05-06 10:18 39.60919 19.91159 8 ft 9 kts 169°
2026-05-06 10:19 39.60850 19.91176 8 ft 11 kts 169°
2026-05-06 10:19 39.60778 19.91194 8 ft 10 kts 169°
2026-05-06 10:19 39.60729 19.91215 8 ft 6 kts 134°
2026-05-06 10:19 39.60725 19.91264 8 ft 5 kts 83°
2026-05-06 10:20 39.60732 19.91306 8 ft 4 kts 77°
2026-05-06 10:20 39.60737 19.91332 8 ft 1 kts 76°
2026-05-06 10:20 39.60738 19.91338 8 ft 1 kts 76°
2026-05-06 10:20 39.60739 19.91343 8 ft 0 kts 76°